Regional Weather Roundup
Issued by NWS Northern Indiana

Home | Current Version | Previous Version | Text Only | Print | Product List | Glossary Off
Versions: 1 2 3 4 5 6 7 8 9 10 11 12 13 14 15 16 17 18 19 20 21 22 23 24 25 26 27 28 29 30 31 32 33 34 35 36 37 38 39 40 41 42 43 44 45 46 47 48 49 50

000
ASUS43 KIWX 190500
RWRIWX

KIWX WEATHER ROUNDUP
NATIONAL WEATHER SERVICE NORTHERN INDIANA
100 AM EDT FRI SEP 19 2014

NOTE: "FAIR" INDICATES FEW OR NO CLOUDS BELOW 12,000 FEET WITH NO
SIGNIFICANT WEATHER AND/OR OBSTRUCTIONS TO VISIBILITY.

* THESE STATIONS ARE NOT UNDER NWS QUALITY CONTROL. THEY ALSO MAY NOT
  REPORT WEATHER SUCH AS PRECIPITATION OR FOG.

INZ001>027-190600-
NORTHERN INDIANA

CITY           SKY/WX    TMP DP  RH WIND       PRES   REMARKS
VALPARAISO     CLEAR     53  50  89 E5        30.17R
KNOX*          CLEAR     49  47  93 CALM      30.15S
SOUTH BEND     CLEAR     58  51  78 E6        30.19R
GOSHEN         CLEAR     55  50  83 E8        30.18S
WARSAW*        CLEAR     54  50  87 E6        30.18R
ANGOLA*        CLEAR     54  52  94 E7        30.20S
FORT WAYNE     PTCLDY    51  47  86 E3        30.19R
PERU/GRISSOM   CLEAR     56  53  91 E6        30.16R

$$
INZ028>050-190600-
CENTRAL INDIANA

CITY           SKY/WX    TMP DP  RH WIND       PRES   REMARKS
LAFAYETTE      CLEAR     52  50  93 CALM      30.14R
KOKOMO*        CLEAR     54  46  76 E8        30.16S
MUNCIE*        CLEAR     51  47  86 E6        30.17R
INDIANAPOLIS   CLEAR     59  48  67 E7        30.13S

$$
MIZ043>046-050>051-056>058-064>065-071>073-077>080-190600-
SOUTHWEST LOWER MICHIGAN

CITY           SKY/WX    TMP DP  RH WIND       PRES   REMARKS
BATTLE CREEK   CLEAR     53  49  86 E6        30.21S
BENTON HARBOR  CLEAR     52  50  93 E6        30.18R
COLDWATER*     CLEAR     53  51  93 E5        30.20S
HILLSDALE*     CLEAR     52  52  99 SE3       30.21S FOG
HOLLAND        CLEAR     53  50  89 E7        30.21R
GRAND RAPIDS   CLEAR     50  47  89 E6        30.22R
KALAMAZOO      CLEAR     50  48  93 CALM      30.21R
STURGIS*       CLEAR     54  52  94 E5        30.19S
THREE RIVERS*  FAIR      53  50  90 E5        30.20S

$$
OHZ001>008-015>018-024>025-190600-
NORTHWEST OHIO

CITY           SKY/WX    TMP DP  RH WIND       PRES   REMARKS
DEFIANCE       CLEAR     54  51  90 NE3       30.20S FOG
FINDLAY        CLEAR     55  51  86 NE7       30.19R
TOLEDO EXPRESS MOCLDY    54  51  90 NE5       30.21S
TOLEDO METCALF CLOUDY    57  50  77 NE9       30.22S
LIMA           CLEAR     52  49  89 E7        30.19S

$$
&&



USA.gov is the U.S. government's official web portal to all federal, state and local government web resources and services.